Flag for Germany Weather past 2 weeks in Itzehoe, Schleswig-Holstein, Germany

Now
41 °F

Passing clouds.


Feels Like: 34 °F
Forecast: 33 / 45 °F
Wind: 13 mph from South

Location: Hohn

Current Time: Feb 27, 2015 at 2:20:01 AM

Latest Report: Feb 27, 2015 at 1:20 AM


Visibility: 3 mi

Pressure: 29.80 "Hg

Humidity: 87%

Dew point: 37 °F

Location of ItzehoeLocation

Historic Weather in Itzehoe — Graph

°F

Itzehoe temperature yesterday

Maximum temperature yesterday: 45 °F (at 1:20 PM)
Minimum temperature yesterday: 37 °F (at 12:20 AM)
Average temperature yesterday: 41 °F

Past Weeks' High & Low Weather Summary

 TemperatureHumidityPressure
High45 °F (Feb 18, 2:20 PM)100% (Feb 13, 9:20 AM)30.63 "Hg (Feb 13, 9:20 AM)
Low25 °F (Feb 17, 7:20 AM)57% (Feb 19, 2:20 PM)29.21 "Hg (Feb 21, 11:20 AM)
Average37 °F88%29.93 "Hg
* Reported Feb 12 12:20 AM — Feb 27 12:20 AM, Itzehoe, Weather by CustomWeather, © 2015

Note: Actual official high and low records may vary slightly from our data, if they occured in-between our weather recording intervals... More about our weather records

Advertising

Itzehoe weather history for previous 24 hours

 ConditionsComfort  
Time TempWeatherWind HumidityBarometerVisibility
12:20 AM
Fri, Feb 27
43 °FLight rain. Passing clouds.10 mph71%29.80 "HgN/A
11:20 PM
Thu, Feb 26
43 °FPassing clouds.9 mph71%29.80 "HgN/A
10:20 PM45 °FPassing clouds.12 mph66%29.83 "HgN/A
9:20 PM45 °FPassing clouds.12 mph66%29.83 "HgN/A
8:20 PM45 °FPassing clouds.13 mph66%29.86 "HgN/A
7:20 PM43 °FPassing clouds.10 mph76%29.86 "HgN/A
6:20 PM43 °FPartly cloudy.8 mph71%29.89 "HgN/A
5:20 PM43 °FPartly sunny.10 mph71%29.92 "HgN/A
4:20 PM45 °FScattered clouds.10 mph66%29.92 "HgN/A
3:20 PM45 °FPassing clouds.12 mph66%29.95 "HgN/A
2:20 PM45 °FScattered clouds.14 mph66%29.98 "HgN/A
1:20 PM45 °FScattered clouds.15 mph71%30.01 "HgN/A
12:20 PM43 °FBroken clouds.10 mph81%30.04 "Hg5 mi
11:20 AM41 °FFog.12 mph93%30.04 "Hg3 mi
10:20 AM41 °FFog.7 mph93%30.07 "Hg2 mi
9:54 AM41 °FFog.7 mph87%30.07 "Hg2 mi
9:20 AM41 °FFog.7 mph93%30.09 "Hg2 mi
8:20 AM39 °FFog.5 mph93%30.07 "Hg1 mi
7:20 AM37 °FFog.5 mph100%30.09 "Hg1 mi
6:20 AM37 °FFog.7 mph93%30.09 "Hg3 mi
5:20 AM37 °FPassing clouds.5 mph93%30.09 "Hg4 mi
4:20 AM37 °FPartly cloudy.5 mph100%30.09 "Hg5 mi
3:20 AM37 °FPassing clouds.2 mph100%30.09 "Hg5 mi
2:20 AM37 °FPassing clouds.2 mph100%30.09 "Hg5 mi
Weather by CustomWeather, © 2015

See weather overviewHow to use our weather pages